[[{"header":{"parameterUnit":"m.s-1","parameterCategory":1,"la1":30.2991,"la2":30.254,"lo1":-89.0895,"lo2":-89.0444,"dy":0.0017,"dx":0.0017,"nx":28,"ny":28,"refTime":"2023-08-07T09:00:00:Z","depth":0,"parameterNumber":2,"parameterNumberName":"U-component_of_WINDS"},"data":[0,0,0,0,0,0,0,0,0,0,0,0,0,0,0,0,0,0,0,0,0,0,0,0,0,0,0,0,0,0,0,0,0,0,0,0,0,0,0,0,0,0,0,0,0,0,0,0,0,0,0,0,0,0,0,0,0,0,5.5871,5.5872,0,5.5943,5.5943,5.5944,5.5845,5.5841,5.5838,5.5834,5.5907,5.5912,5.5918,0,0,0,0,0,0,0,0,0,0,0,0,0,5.5645,5.565,5.5871,5.5872,5.5873,5.5942,5.5943,5.5944,5.5845,5.5841,5.5837,5.5833,5.5906,5.5912,5.5918,0,0,0,0,0,0,0,0,0,0,0,0,0,5.5733,5.5651,5.5871,5.5832,5.5829,5.5942,5.5943,5.5945,5.5846,5.5841,5.5836,5.5831,5.5904,5.5911,5.5919,5.6074,0,0,5.5943,5.5946,0,0,0,0,0,0,0,0,5.5728,5.5741,5.5837,5.5835,5.5832,5.5879,5.589,5.5988,5.5848,5.584,5.5834,5.5828,5.5902,5.591,5.5935,5.6077,5.608,5.5944,5.5948,5.5952,5.5954,0,0,0,0,0,0,0,5.5722,5.5737,5.5899,5.5838,5.5835,5.5809,5.5816,5.5908,5.59,5.584,5.5833,5.5843,5.59,5.5928,5.5936,5.6081,5.5943,5.595,5.5955,5.5958,5.6349,5.6354,0,0,0,0,0,0,5.5721,5.5733,5.5897,5.5901,5.5766,5.5818,5.5825,5.5869,5.5899,5.5898,5.5847,5.5838,5.5917,5.5927,5.5938,5.6117,5.5952,5.5959,5.5964,5.6343,5.635,5.6356,0,0,0,0,0,0,5.5716,5.5736,5.5894,5.5815,5.5833,5.5827,5.5878,5.5874,5.5901,5.5904,5.5902,5.5877,5.5913,5.5927,5.604,5.6118,5.5963,5.597,5.6336,5.6345,5.6353,5.6479,0,0,0,0,0,0,5.571,5.5735,5.5795,5.5817,5.5838,5.5996,5.5883,5.5879,5.5915,5.5904,5.5932,5.5931,5.591,5.6028,5.6047,5.6126,5.5976,5.6329,5.634,5.635,5.6468,5.6491,5.6511,0,0,0,0,0,5.5703,5.5829,5.5799,5.5819,5.5913,5.6,5.6012,5.5985,5.5922,5.5981,5.5982,5.593,5.6108,5.6041,5.6061,5.6144,5.6324,5.6337,5.635,5.6458,5.6486,5.651,0,0,0,0,0,0,5.5817,5.5831,5.5798,5.5935,5.5967,5.5983,5.6057,5.6016,5.6067,5.6054,5.6018,5.6025,5.6145,5.6156,5.6082,5.6293,5.6205,5.6223,5.6281,5.6307,5.6328,5.6322,5.5983,0,0,0,0,0,5.5858,5.5928,5.5937,5.6057,5.6075,5.6064,5.6101,5.6077,5.6109,5.6122,5.6131,5.6164,5.6226,5.6268,5.6326,5.647,5.6472,5.6536,5.6558,5.6575,5.659,5.6662,5.6689,5.6398,5.6398,5.6397,0,0,5.5943,5.596,5.6007,5.6081,5.6103,5.6175,5.6076,5.6158,5.621,5.6134,5.6239,5.6248,5.6281,5.6409,5.6466,5.6422,5.6671,5.6592,5.6606,5.661,5.6678,5.6706,5.673,5.6406,5.6405,5.6404,0,0,5.6135,5.6157,5.6257,5.628,5.6314,5.6305,5.633,5.6352,5.6354,5.6459,5.6403,5.6465,5.6574,5.6598,5.6625,5.6824,5.6776,5.6844,5.6954,5.7025,5.7048,5.7068,5.7134,5.7159,5.6859,5.6859,5.6859,0,5.6237,5.6344,5.6314,5.6398,5.643,5.6365,5.6464,5.6489,5.654,5.6563,5.6514,5.6646,5.6665,5.6795,5.6843,5.6869,5.6892,5.6839,5.7047,5.7067,5.7085,5.7148,5.7174,5.6867,5.6866,5.6865,5.6864,0,5.6465,5.654,5.6617,5.6667,5.6708,5.68,5.6782,5.6827,5.68,5.6795,5.6901,5.6921,5.6979,5.7009,5.6984,5.7135,5.7106,5.7053,5.6963,5.7121,5.7179,5.7204,5.6878,5.6875,5.6873,5.6871,0,0,5.6731,5.6761,5.6789,5.6808,5.684,5.6897,5.6985,5.7041,5.7079,5.7117,5.7187,5.728,5.7229,5.726,5.7237,5.73,5.745,5.7238,5.7238,5.7273,5.7612,5.7649,5.7678,5.742,5.7424,5.7428,5.7608,0,5.6919,5.707,5.7043,5.7189,5.7256,5.7193,5.7269,5.7296,5.7294,5.7349,5.7347,5.7411,5.7343,5.736,5.7419,5.7419,5.7517,5.7406,5.7482,5.7485,5.7471,5.7709,5.7749,5.7918,5.7631,5.7635,5.7638,0,5.7158,5.7202,5.7355,5.7372,5.7399,5.7468,5.7515,5.757,5.7598,5.7591,5.7625,5.7589,5.7673,5.7585,5.7699,5.7625,5.7654,5.7659,5.7664,5.7667,5.7568,5.7714,5.7972,5.7995,5.7674,5.7671,5.7668,0,5.7331,5.7429,5.7531,5.7551,5.7575,5.7624,5.7636,5.7659,5.7693,5.7735,5.7756,5.7808,5.7836,5.7876,5.7854,5.7792,5.7971,5.7882,5.7965,5.7966,5.8003,5.8,5.8265,5.8029,5.8029,5.8028,5.8028,0,5.7541,5.7636,5.7608,5.7671,5.7774,5.7743,5.7845,5.785,5.787,5.7931,5.7882,5.794,5.7909,5.7964,5.7948,5.8043,5.8057,5.8052,5.8046,5.8054,5.8054,5.8071,5.8057,5.8035,5.8034,5.8032,5.8031,0,5.775,5.7737,5.7843,5.7856,5.7862,5.7937,5.7947,5.8005,5.7998,5.8076,5.8092,5.8083,5.8145,5.8127,5.8196,5.8184,5.8303,5.8284,5.8293,5.8287,5.837,5.8361,5.8651,5.8685,5.8432,5.8434,5.8436,0,5.7884,5.7954,5.7974,5.8011,5.8027,5.8088,5.8122,5.8093,5.8131,5.8166,5.8218,5.8276,5.832,5.8422,5.842,5.8471,5.845,5.8549,5.8458,5.8462,5.8447,5.8441,5.8446,5.8566,5.8569,5.8571,5.8573,0,5.812,5.8109,5.816,5.8208,5.825,5.8287,5.8319,5.8352,5.8325,5.8369,5.8432,5.8466,5.8534,5.8591,5.8637,5.8647,5.8605,5.8602,5.8623,5.863,5.8631,5.8627,5.8338,5.8595,5.8592,5.8591,5.859,5.8589,5.8292,5.835,5.8372,5.843,5.8451,5.8481,5.8534,5.8534,5.8586,5.8638,5.8618,5.8689,5.8712,5.8769,5.8786,5.8839,5.8801,5.8834,5.8841,5.8848,5.8856,5.8626,5.8848,5.8847,5.8847,5.8846,5.8846,0,5.8522,5.8532,5.8586,5.8631,5.8676,5.8633,5.8665,5.8705,5.8767,5.8792,5.8836,5.8906,5.896,5.8962,5.9012,5.9054,5.9035,5.9068,5.9062,5.9065,5.889,5.8864,5.9082,5.9082,5.9082,5.9082,5.9081,5.9081,5.8646,5.8741,5.8732,5.8836,5.8845,5.8913,5.8935,5.8962,5.8981,5.9061,5.9105,5.9106,5.9121,5.9171,5.9218,5.9217,5.9235,5.9274,5.9266,5.9101,5.9078,5.9055,5.9031,5.928,5.928,5.9435,5.9437,5.9438]},{"header":{"parameterUnit":"m.s-1","parameterCategory":1,"la1":30.2991,"la2":30.254,"lo1":-89.0895,"lo2":-89.0444,"dy":0.0017,"dx":0.0017,"nx":28,"ny":28,"refTime":"2023-08-07T09:00:00:Z","depth":0,"parameterNumber":3,"parameterNumberName":"V-component_of_WINDS"},"data":[0,0,0,0,0,0,0,0,0,0,0,0,0,0,0,0,0,0,0,0,0,0,0,0,0,0,0,0,0,0,0,0,0,0,0,0,0,0,0,0,0,0,0,0,0,0,0,0,0,0,0,0,0,0,0,0,0,0,4.7508,4.7509,0,4.7619,4.762,4.7621,4.7598,4.7596,4.7594,4.7592,4.7701,4.7706,4.771,0,0,0,0,0,0,0,0,0,0,0,0,0,4.7269,4.7274,4.7507,4.7509,4.751,4.7619,4.762,4.7622,4.7598,4.7596,4.7593,4.7591,4.7699,4.7705,4.7711,0,0,0,0,0,0,0,0,0,0,0,0,0,4.7376,4.7275,4.7507,4.7512,4.7513,4.7618,4.762,4.7622,4.7599,4.7596,4.7592,4.759,4.7697,4.7704,4.7712,4.7818,0,0,4.7734,4.7737,0,0,0,0,0,0,0,0,4.737,4.7384,4.751,4.7512,4.7514,4.7591,4.7576,4.7687,4.7599,4.7566,4.7592,4.7588,4.7667,4.7676,4.7704,4.7823,4.7827,4.7734,4.7739,4.7742,4.7744,0,0,0,0,0,0,0,4.7362,4.7379,4.7551,4.7512,4.7514,4.7506,4.7518,4.7597,4.7632,4.7569,4.7567,4.7581,4.7667,4.7697,4.7706,4.7829,4.7734,4.7741,4.7745,4.7748,4.8038,4.8041,0,0,0,0,0,0,4.7354,4.7373,4.7548,4.7555,4.7433,4.7513,4.7526,4.7569,4.7631,4.7638,4.7584,4.758,4.7686,4.7698,4.771,4.7836,4.7742,4.7749,4.7753,4.8034,4.8038,4.8042,0,0,0,0,0,0,4.7349,4.737,4.7543,4.7464,4.7485,4.752,4.7569,4.7573,4.7603,4.7642,4.7648,4.7608,4.7684,4.77,4.7791,4.784,4.7752,4.7758,4.803,4.8036,4.804,4.8091,0,0,0,0,0,0,4.7342,4.7368,4.741,4.7465,4.749,4.7624,4.7572,4.7578,4.7616,4.7612,4.7667,4.7673,4.7683,4.778,4.7798,4.7848,4.7764,4.8026,4.8033,4.8039,4.8086,4.8098,4.8108,0,0,0,0,0,4.7334,4.742,4.7413,4.7434,4.7544,4.7627,4.7641,4.7652,4.762,4.7662,4.7687,4.7671,4.7832,4.779,4.7809,4.7863,4.8023,4.8031,4.8038,4.808,4.8095,4.8108,0,0,0,0,0,0,4.7369,4.7427,4.742,4.7527,4.7572,4.7623,4.7676,4.7668,4.7723,4.7716,4.7726,4.7739,4.7831,4.7856,4.7808,4.7967,4.7922,4.7934,4.7948,4.7962,4.7973,4.7965,4.777,0,0,0,0,0,4.7389,4.7454,4.7501,4.759,4.7614,4.7641,4.7678,4.7683,4.773,4.7749,4.778,4.7825,4.7886,4.7925,4.7983,4.8089,4.8099,4.8135,4.8146,4.8155,4.8165,4.8221,4.8237,4.8067,4.8067,4.8067,0,0,4.7432,4.7472,4.7512,4.7598,4.7635,4.77,4.7658,4.7729,4.7776,4.7759,4.7847,4.7872,4.7922,4.8021,4.8066,4.8044,4.8214,4.8165,4.8172,4.8177,4.823,4.8246,4.826,4.8072,4.8071,4.807,0,0,4.7542,4.758,4.7658,4.7694,4.775,4.7767,4.7785,4.7838,4.7854,4.7943,4.793,4.7986,4.809,4.8126,4.8158,4.828,4.8267,4.8299,4.8357,4.8411,4.8424,4.8436,4.8478,4.8493,4.8309,4.8309,4.8309,0,4.7587,4.7687,4.7698,4.777,4.7808,4.7796,4.7873,4.7908,4.7979,4.8004,4.7979,4.8109,4.8142,4.8248,4.8277,4.8304,4.8324,4.8292,4.8422,4.8434,4.8445,4.8485,4.8501,4.8312,4.8312,4.8311,4.8311,0,4.7739,4.7808,4.7863,4.7933,4.7977,4.8051,4.8072,4.8114,4.8114,4.8133,4.8222,4.8262,4.8326,4.8352,4.8353,4.8457,4.8442,4.842,4.8375,4.8465,4.8502,4.8518,4.8317,4.8316,4.8315,4.8314,0,0,4.7875,4.7949,4.797,4.8,4.8059,4.8112,4.8184,4.8249,4.8284,4.8333,4.8393,4.848,4.846,4.8496,4.85,4.8548,4.8639,4.8519,4.852,4.8539,4.8755,4.8771,4.8788,4.8631,4.8634,4.8637,4.875,0,4.799,4.812,4.8131,4.8247,4.8309,4.8298,4.8361,4.8403,4.8422,4.8476,4.8497,4.8558,4.8527,4.8549,4.8595,4.8619,4.8683,4.8611,4.8685,4.8687,4.8672,4.8808,4.8826,4.8931,4.8765,4.8767,4.8769,0,4.8142,4.8196,4.8318,4.8367,4.8393,4.845,4.8509,4.8561,4.8608,4.8618,4.8658,4.8655,4.8727,4.868,4.8778,4.8729,4.876,4.8776,4.878,4.8787,4.8733,4.8817,4.8965,4.898,4.8793,4.8791,4.8789,0,4.8227,4.833,4.8416,4.8443,4.8502,4.8542,4.8568,4.8612,4.8649,4.87,4.8724,4.8782,4.8813,4.8857,4.8869,4.8834,4.8967,4.8921,4.8976,4.8976,4.9004,4.9002,4.9157,4.9025,4.9025,4.9025,4.9025,0,4.8353,4.8428,4.8455,4.8508,4.859,4.8602,4.8683,4.8706,4.8745,4.88,4.8793,4.8845,4.8859,4.8912,4.8922,4.9001,4.9016,4.9024,4.9026,4.9025,4.9024,4.9045,4.9037,4.9029,4.9028,4.9027,4.9027,0,4.8463,4.8484,4.8577,4.8625,4.8639,4.8698,4.8738,4.8788,4.8806,4.8876,4.8893,4.8921,4.8983,4.9,4.9075,4.9081,4.9174,4.9169,4.9159,4.9158,4.9211,4.9206,4.9385,4.9409,4.9262,4.9264,4.9265,0,4.8542,4.8599,4.8654,4.8691,4.8719,4.878,4.8818,4.883,4.887,4.8926,4.8968,4.903,4.908,4.9181,4.9206,4.9263,4.9259,4.9317,4.9267,4.9263,4.9258,4.9254,4.9259,4.9327,4.9328,4.933,4.9331,0,4.8679,4.8686,4.8742,4.8802,4.8848,4.8895,4.894,4.897,4.8988,4.9033,4.9097,4.9136,4.9213,4.9274,4.9331,4.9355,4.9346,4.9346,4.9362,4.9361,4.9352,4.9356,4.9184,4.9342,4.9341,4.934,4.934,4.9339,4.8775,4.8824,4.887,4.8932,4.8968,4.9009,4.9058,4.9082,4.9137,4.9201,4.9204,4.9274,4.9316,4.9392,4.942,4.9473,4.9455,4.9477,4.9483,4.9488,4.9492,4.9344,4.9483,4.9483,4.9483,4.9482,4.9482,0,4.891,4.8939,4.8996,4.9059,4.9108,4.9096,4.9144,4.9185,4.9247,4.9288,4.9337,4.941,4.9469,4.9499,4.9557,4.9593,4.959,4.9608,4.9605,4.961,4.9506,4.9486,4.9609,4.9609,4.9609,4.9609,4.9609,4.9609,4.8987,4.907,4.9082,4.9181,4.9209,4.9278,4.9307,4.9345,4.9377,4.946,4.9509,4.9528,4.9564,4.9624,4.9677,4.9684,4.9705,4.9725,4.9729,4.9631,4.9618,4.9605,4.9587,4.9729,4.973,4.9829,4.983,4.9831]}]]